COSMOS 249 DEB, 3757

Orbit data source: Space-Track

COSMOS 249 DEB, 3757 is space debris in LEO originally from a launch on Sun, 20 Oct 1968 UTC launched from the Tyuratam Missile And Space Complex (TTMTR). Debris objects in space refer to the collection of defunct objects orbiting the Earth. Examples of debris include non-operational satellites, rocket bodies, and fragments generated from explosions, collisions, or faulty payload assembly.

Loading next visibility...
Identifier
3757, 1968-091AU
Orbit
LEO
Country
Flag of CISCIS
Related business
Manufacturer
Unknown
Mission
Spacecraft
Bus & Motor
Unknown
Mass
Unknown
Launch date (UTC)
1968-10-20 (57 years ago)
Launch vehicle
Unknown
Launch site
Tyuratam Missile And Space Complex (TTMTR)
Object type
Payload
Rocket body
Debris
Shape & HBR
Unknown shape, 0.1 m
Radar Cross Section
Small (<0.1 m²)

Expand to show TLE details & history
Last TLE update: 13 hours ago

TLE from 13 hours ago
0 COSMOS 249 DEB
1 03757U 68091AU  25286.88066674  .00019529  00000-0  24063-2 0  9997
2 03757  61.9762 283.2569 0376144  17.9166 343.4747 14.43649945798257
Epoch: 2025-10-13T21:08Z
TLE epoch observation values (Epoch: 2025-10-13T21:08:09.606Z)
Latitude
Longitude
-56.46022°
Altitude
492.111 km
Speed
7.755 km/s
True Right ascension
18h 53m 01s
True Declination
0° 00' 00"
Sunlit
Object was in daylight at epoch
Visualization orbit readout
Latitude
Unknown
Longitude
Unknown
Altitude
Unknown
Speed
Unknown
Apparent Right ascension
Unknown
Apparent Declination
Unknown
Sunlit
N/A
Visualization observer readout
Local Sidereal Time
04:39:31
Azimuth
Unknown
Elevation
Unknown
Doppler factor
Unknown
Orbital elements
Apogee altitude
1,013.371 km
Perigee altitude
477.474 km
Semi-major axis
7,123.56 km
Eccentricity
0.03761
Inclination
61.9762°
RAAN
283.2569°
Arg. of periapsis
17.9166°
True anomaly
342.19104°
Mean anomaly
343.4747°
Eccentric anomaly
342.8388°
Mean motion
3.60992 °/min
Orbital period
99.73 mins
BSTAR
0.0024063
Loading maneuver chart data...
Computing Atmospheric mass density...
Loading historical data...
Loading historical data...
Loading historical data...
Loading historical data...
Loading historical data...
Loading historical data...
Loading historical data...

Documentation

Showing up to 5 results
|